Temp
-11 -11 -10 -11 -11 -11 -10 -11 -11 -10 -10 -10 -9 -10 -10 -10 -11 -10 -10 -9 -8 -6 -6 -5 -5 -5 -5 -4 -4 -4 -3 -3 -3 -2 -2 -2 -2 -2
-12 -12 -12 -12 -12 -12 -13 -13 -14 -14 -12 -11 -11 -11 -11 -11 -12 -12 -11 -9 -9 -8 -7 -6 -7 -6 -6 -6 -5 -4 -4 -3 -3 -3 -3 -3 -3 -2
-12 -13 -13 -13 -14 -14 -14 -14 -14 -15 -14 -14 -13 -13 -13 -12 -12 -12 -12 -11 -9 -9 -8 -8 -7 -7 -7 -6 -6 -5 -5 -4 -4 -4 -3 -3 -3 -3
-13 -14 -14 -14 -14 -14 -14 -14 -14 -15 -15 -14 -15 -14 -13 -14 -13 -13 -14 -14 -13 -12 -10 -8 -8 -7 -8 -8 -7 -6 -6 -5 -5 -5 -5 -4 -4 -4
-14 -14 -14 -15 -14 -14 -14 -14 -14 -15 -15 -15 -14 -15 -15 -14 -14 -14 -14 -14 -14 -14 -13 -11 -10 -9 -8 -8 -8 -7 -7 -6 -6 -6 -6 -6 -5 -4
-15 -15 -15 -15 -15 -15 -15 -15 -15 -15 -15 -15 -14 -14 -15 -16 -16 -16 -15 -15 -14 -15 -15 -14 -12 -11 -10 -9 -9 -8 -8 -8 -7 -7 -6 -6 -6 -5
-15 -15 -15 -15 -15 -15 -15 -15 -15 -15 -15 -15 -15 -15 -16 -16 -16 -16 -16 -16 -14 -14 -13 -13 -13 -13 -11 -11 -10 -10 -9 -9 -8 -8 -8 -7 -6 -6
-16 -16 -16 -16 -16 -16 -15 -15 -15 -16 -16 -15 -15 -15 -15 -15 -15 -15 -15 -15 -14 -15 -14 -13 -13 -12 -12 -12 -12 -10 -10 -9 -9 -9 -8 -7 -7 -6
-16 -16 -16 -16 -16 -16 -16 -16 -16 -15 -16 -16 -15 -15 -15 -15 -15 -15 -15 -15 -15 -15 -15 -14 -14 -14 -12 -12 -11 -11 -11 -10 -10 -10 -10 -9 -9 -8
-17 -17 -17 -17 -17 -17 -17 -16 -16 -16 -16 -16 -16 -16 -16 -16 -15 -15 -15 -15 -15 -15 -15 -14 -14 -14 -14 -13 -12 -12 -12 -11 -11 -11 -11 -10 -10 -9
-17 -17 -17 -17 -17 -17 -17 -17 -17 -16 -17 -17 -16 -16 -16 -16 -16 -16 -15 -16 -15 -15 -15 -15 -15 -14 -15 -14 -13 -13 -12 -12 -11 -11 -11 -11 -11 -10
-18 -18 -18 -18 -18 -18 -18 -18 -17 -17 -17 -16 -16 -17 -16 -16 -16 -16 -16 -16 -16 -15 -15 -16 -16 -17 -16 -16 -15 -14 -13 -13 -12 -12 -12 -12 -12 -11
-18 -18 -19 -19 -19 -18 -18 -17 -17 -17 -17 -17 -17 -17 -16 -16 -16 -16 -16 -16 -16 -15 -16 -17 -17 -18 -17 -17 -16 -16 -15 -14 -13 -13 -12 -12 -12 -12
-19 -19 -19 -18 -18 -18 -18 -17 -17 -17 -17 -17 -17 -17 -17 -17 -17 -16 -16 -16 -17 -17 -17 -17 -17 -18 -17 -17 -17 -17 -16 -16 -16 -14 -13 -13 -13 -12
-19 -19 -18 -18 -18 -18 -17 -17 -17 -17 -17 -17 -17 -17 -17 -16 -16 -16 -16 -16 -16 -17 -17 -17 -17 -18 -17 -17 -17 -17 -16 -16 -16 -15 -14 -13 -13 -13
-18 -18 -18 -18 -18 -18 -18 -17 -17 -17 -17 -17 -17 -17 -16 -16 -16 -16 -16 -16 -16 -17 -17 -17 -17 -17 -17 -17 -18 -17 -17 -17 -16 -16 -15 -14 -14 -13
-18 -18 -18 -18 -18 -18 -17 -16 -17 -17 -17 -17 -17 -17 -16 -16 -16 -16 -16 -16 -16 -17 -17 -17 -17 -17 -17 -17 -17 -18 -17 -17 -16 -16 -16 -15 -14 -14
-18 -18 -18 -17 -17 -17 -17 -17 -16 -16 -16 -16 -16 -16 -16 -16 -16 -16 -16 -16 -16 -17 -17 -17 -17 -17 -17 -17 -17 -17 -17 -17 -16 -16 -16 -16 -15 -15
-18 -18 -18 -17 -17 -17 -17 -16 -16 -16 -16 -16 -16 -16 -16 -16 -16 -16 -16 -16 -16 -17 -16 -17 -17 -17 -17 -17 -16 -16 -16 -17 -16 -16 -16 -17 -15 -15
-17 -17 -17 -17 -17 -17 -17 -16 -16 -16 -16 -16 -16 -16 -16 -16 -16 -16 -16 -16 -16 -16 -16 -16 -16 -16 -16 -16 -17 -16 -16 -16 -16 -16 -16 -17 -16 -16
-17 -17 -17 -17 -17 -17 -17 -16 -16 -16 -16 -16 -15 -15 -15 -16 -16 -16 -16 -16 -16 -16 -16 -16 -16 -16 -16 -16 -16 -16 -16 -16 -16 -16 -16 -16 -16 -16
-17 -17 -17 -17 -18 -17 -16 -16 -16 -16 -16 -16 -15 -15 -15 -15 -16 -16 -16 -16 -16 -16 -16 -16 -16 -16 -16 -16 -16 -16 -16 -16 -16 -16 -16 -16 -16 -16
-18 -17 -17 -17 -18 -17 -17 -16 -16 -16 -16 -16 -16 -15 -15 -15 -16 -15 -16 -16 -16 -16 -16 -16 -16 -16 -16 -16 -16 -16 -16 -16 -16 -16 -16 -15 -16 -16
Height
2982 2980 2977 2974 2972 2971 2968 2965 2965 2965 2967 2969 2968 2967 2967 2967 2967 2967 2969 2969 2969 2973 2978 2984 2988 2991 2996 3001 3006 3011 3014 3018 3020 3023 3027 3031 3034 3039
2976 2973 2971 2969 2965 2962 2960 2958 2955 2955 2956 2957 2956 2958 2958 2958 2957 2956 2957 2959 2959 2962 2964 2968 2973 2977 2981 2985 2990 2995 3000 3005 3008 3012 3015 3019 3023 3027
2968 2966 2964 2962 2960 2958 2956 2954 2952 2950 2945 2944 2947 2947 2946 2946 2947 2947 2947 2946 2947 2949 2952 2954 2957 2962 2967 2971 2975 2978 2982 2988 2994 2998 3002 3006 3010 3015
2959 2957 2954 2953 2950 2949 2947 2944 2942 2940 2938 2935 2936 2936 2935 2935 2936 2936 2936 2937 2936 2938 2938 2941 2944 2947 2951 2955 2959 2963 2966 2970 2976 2982 2988 2992 2995 3000
2950 2947 2945 2943 2940 2939 2937 2934 2932 2930 2928 2925 2923 2924 2924 2925 2924 2924 2925 2925 2926 2927 2927 2928 2930 2933 2937 2939 2943 2946 2951 2955 2959 2965 2972 2977 2982 2985
2941 2938 2935 2932 2929 2928 2926 2923 2921 2919 2918 2915 2913 2912 2913 2914 2914 2914 2913 2914 2915 2917 2918 2917 2917 2918 2922 2927 2930 2933 2935 2940 2945 2950 2956 2961 2967 2971
2932 2929 2925 2921 2919 2917 2914 2912 2910 2908 2907 2905 2903 2903 2904 2905 2905 2905 2903 2903 2902 2903 2903 2904 2907 2907 2909 2911 2915 2919 2921 2925 2928 2933 2938 2945 2951 2956
2921 2918 2915 2911 2909 2906 2904 2902 2901 2897 2895 2894 2893 2891 2892 2892 2892 2891 2890 2890 2889 2891 2891 2892 2893 2895 2898 2899 2900 2900 2906 2909 2913 2917 2923 2928 2934 2940
2911 2907 2904 2902 2899 2896 2893 2890 2888 2887 2885 2884 2882 2882 2880 2882 2881 2880 2880 2879 2879 2880 2880 2880 2882 2882 2884 2887 2889 2889 2892 2896 2901 2904 2909 2915 2920 2925
2901 2896 2893 2891 2888 2885 2882 2880 2878 2876 2875 2874 2872 2872 2871 2871 2870 2870 2869 2867 2868 2870 2871 2868 2871 2871 2872 2873 2876 2879 2880 2883 2887 2890 2895 2900 2906 2911
2889 2885 2882 2879 2877 2874 2871 2869 2868 2867 2867 2865 2863 2861 2859 2859 2859 2859 2859 2859 2858 2860 2861 2859 2860 2859 2860 2861 2864 2867 2870 2872 2874 2878 2882 2887 2892 2897
2879 2875 2872 2869 2866 2864 2862 2861 2859 2859 2857 2856 2854 2851 2849 2848 2849 2849 2851 2850 2851 2851 2854 2853 2852 2852 2850 2852 2854 2856 2858 2860 2863 2867 2870 2875 2880 2884
2870 2867 2864 2861 2859 2857 2855 2854 2852 2851 2850 2849 2848 2847 2845 2844 2844 2844 2845 2844 2844 2843 2846 2845 2844 2846 2846 2846 2848 2850 2851 2852 2854 2857 2860 2865 2869 2873
2863 2860 2857 2855 2853 2851 2849 2847 2845 2844 2844 2844 2844 2843 2842 2842 2841 2841 2840 2839 2838 2837 2839 2839 2837 2840 2841 2841 2842 2845 2846 2847 2847 2849 2851 2855 2859 2863
2858 2855 2852 2850 2848 2846 2843 2840 2840 2840 2841 2841 2840 2840 2839 2839 2838 2837 2836 2834 2832 2831 2831 2832 2832 2833 2834 2835 2837 2839 2840 2842 2841 2842 2844 2846 2850 2854
2855 2852 2849 2847 2845 2842 2839 2837 2837 2838 2838 2838 2837 2837 2837 2836 2835 2834 2832 2830 2828 2827 2827 2827 2827 2827 2827 2829 2830 2833 2835 2836 2837 2837 2838 2840 2843 2846
2853 2850 2848 2846 2843 2841 2838 2837 2836 2836 2835 2835 2835 2835 2835 2834 2833 2832 2831 2829 2825 2825 2825 2824 2824 2822 2822 2822 2824 2827 2829 2831 2833 2834 2833 2834 2837 2839
2852 2849 2847 2845 2843 2841 2840 2838 2836 2835 2834 2833 2832 2832 2832 2832 2832 2831 2830 2828 2826 2825 2824 2823 2822 2820 2820 2821 2822 2823 2825 2826 2828 2829 2829 2830 2831 2834
2852 2850 2847 2845 2843 2842 2840 2838 2837 2835 2833 2832 2830 2829 2829 2830 2830 2829 2829 2827 2826 2825 2825 2824 2823 2821 2820 2820 2821 2822 2822 2822 2823 2824 2825 2825 2826 2827
2853 2850 2848 2846 2844 2842 2840 2839 2837 2835 2833 2831 2829 2827 2826 2827 2827 2827 2827 2827 2826 2824 2824 2823 2821 2820 2820 2820 2819 2820 2819 2819 2819 2819 2820 2820 2821 2822
2853 2850 2848 2846 2844 2842 2841 2839 2837 2835 2833 2831 2829 2826 2824 2824 2824 2825 2825 2825 2824 2823 2822 2821 2820 2819 2819 2818 2818 2817 2817 2816 2815 2815 2815 2816 2816 2816
2852 2850 2848 2846 2844 2843 2842 2840 2838 2835 2833 2831 2829 2827 2825 2824 2823 2822 2822 2822 2821 2820 2819 2818 2817 2816 2816 2815 2814 2814 2814 2813 2813 2812 2812 2812 2812 2812
2851 2849 2847 2845 2844 2843 2841 2840 2838 2835 2833 2831 2829 2828 2826 2824 2822 2821 2820 2819 2818 2817 2816 2815 2814 2813 2812 2812 2811 2811 2811 2810 2810 2810 2810 2810 2810 2810
Wind_Speed
34 33 33 31 30 34 40 34 30 32 34 33 40 38 31 27 28 34 41 43 46 48 51 47 49 49 48 49 46 44 42 40 40 41 43 45 45 45
27 23 21 22 24 27 28 30 31 29 29 30 30 31 34 33 31 34 39 40 42 42 46 45 46 48 49 51 52 51 48 47 45 44 44 46 46 46
31 30 28 26 28 30 30 30 29 28 33 33 29 28 30 35 39 40 41 43 43 44 45 47 48 50 50 51 52 52 54 53 51 49 48 48 48 47
34 31 32 33 33 36 37 37 35 32 32 37 33 34 35 35 34 35 35 31 36 37 45 50 52 53 50 49 51 53 56 57 56 51 48 50 50 50
35 37 37 34 35 36 36 37 37 36 35 38 40 34 35 35 35 35 35 36 34 34 38 43 46 49 50 49 51 53 54 55 56 54 50 49 51 52
36 36 36 36 36 36 37 37 38 39 39 40 41 40 36 31 31 32 33 34 36 31 32 36 42 46 48 48 49 51 53 54 55 54 50 50 51 52
35 36 36 37 35 34 36 37 37 38 38 38 40 38 32 30 33 31 34 36 39 41 42 41 41 41 43 46 47 48 51 53 55 54 52 51 52 52
35 34 34 36 36 36 36 37 36 36 37 37 38 40 39 38 38 37 37 38 40 37 36 38 40 42 43 44 43 47 51 53 54 55 54 55 53 52
35 36 36 34 34 34 35 36 36 34 34 34 36 34 35 33 35 36 36 38 39 37 37 37 36 38 38 38 42 45 45 46 47 50 51 53 54 54
37 36 36 34 32 33 34 34 33 33 30 29 30 30 32 33 34 34 35 38 38 37 36 39 36 38 38 39 37 38 43 45 44 46 48 49 52 55
37 36 33 32 30 31 31 31 29 27 26 28 30 33 35 34 33 34 33 33 32 31 29 33 31 35 37 39 38 37 37 41 43 43 45 46 47 51
33 31 29 27 27 26 26 26 27 25 26 27 26 26 24 22 22 26 25 28 28 28 24 27 26 25 28 30 31 32 34 36 38 40 41 43 44 47
32 27 22 21 23 22 22 23 24 23 22 17 14 12 11 11 12 15 18 21 24 26 21 24 26 23 22 24 25 21 22 27 31 34 37 39 41 44
27 24 21 20 20 20 20 20 21 16 11 10 11 10 9 9 9 11 15 18 20 23 21 21 25 23 23 23 21 20 20 19 19 27 31 34 37 40
23 21 19 17 16 15 17 14 10 8 9 10 10 9 9 9 10 11 13 15 17 19 20 19 22 23 25 23 22 20 18 18 21 24 25 30 31 34
17 15 14 12 10 13 9 5 4 6 8 8 8 8 7 6 6 9 11 12 12 11 10 11 15 21 26 28 27 21 19 20 18 20 23 22 24 30
14 13 10 8 9 11 11 5 2 3 4 4 5 5 5 4 5 6 7 9 7 7 9 10 12 13 15 19 23 20 17 16 15 17 20 20 24 27
13 10 9 8 8 7 6 6 5 5 4 4 4 5 6 4 3 4 6 8 8 8 5 6 11 10 8 9 12 14 17 16 15 15 18 21 22 23
12 10 9 8 7 5 5 6 6 7 8 8 7 6 8 8 4 4 5 5 5 4 5 6 6 8 6 6 7 9 10 11 13 14 15 20 20 22
11 10 9 8 7 5 7 7 7 7 8 9 11 9 7 10 8 6 5 5 4 3 4 5 6 6 7 8 12 13 13 12 13 14 15 16 16 18
11 10 9 8 6 5 7 7 7 7 8 9 11 12 6 7 9 9 10 9 9 10 10 10 9 8 8 8 10 9 9 11 10 9 11 14 15 15
11 10 9 7 4 5 6 7 7 7 8 9 10 11 10 5 5 9 11 12 12 13 14 14 14 13 12 12 13 12 12 12 11 10 9 9 12 11
11 10 8 5 2 5 7 7 7 7 7 7 8 9 9 8 8 6 7 9 11 11 10 10 10 10 11 13 13 12 12 12 11 11 10 9 8 9
Wind_Direction
298 296 293 294 291 287 282 291 279 270 262 255 252 256 259 248 250 252 256 261 262 259 257 256 254 252 253 251 251 250 250 251 253 254 250 248 250 250
292 284 287 293 293 297 297 300 304 299 278 273 273 269 264 257 253 256 262 260 261 260 257 254 252 251 252 253 252 253 254 254 255 255 254 251 247 247
283 283 284 285 287 287 284 285 281 282 288 289 278 274 266 258 255 254 257 261 260 258 256 255 255 253 252 254 256 257 258 258 257 255 251 252 248 245
276 276 276 280 282 286 288 287 284 279 274 275 273 271 266 264 264 263 263 260 263 261 259 255 253 253 255 256 255 256 258 259 259 256 252 247 247 245
296 294 296 293 287 284 281 279 278 278 275 277 278 275 274 272 268 265 265 266 264 263 260 263 263 259 255 255 254 254 254 256 256 255 251 248 245 244
299 298 295 291 287 285 284 282 281 280 280 279 279 280 279 278 275 272 269 266 267 262 261 261 263 262 258 256 256 256 256 255 254 254 251 248 244 243
296 294 291 289 289 287 283 283 282 281 279 277 275 275 272 264 260 260 257 258 260 261 262 260 259 262 263 259 255 252 251 251 249 247 247 246 243 241
296 293 289 287 287 285 284 282 281 280 277 274 272 270 271 272 272 272 269 269 268 267 266 262 259 257 256 257 256 253 246 247 248 248 244 243 241 239
297 294 292 289 288 286 285 287 284 280 276 274 272 273 273 273 270 269 268 267 269 270 269 267 263 263 261 254 251 253 255 253 250 250 248 244 242 240
299 296 294 292 289 286 281 281 281 279 280 277 275 272 271 270 268 268 268 267 267 268 269 270 268 266 264 263 259 254 255 254 251 248 246 245 242 240
299 298 296 292 288 284 283 282 282 280 280 279 280 280 279 274 267 263 262 264 265 268 270 274 273 269 264 263 261 260 255 254 253 250 248 246 243 241
305 304 298 293 287 284 284 283 281 283 282 284 284 286 284 276 262 256 261 263 268 268 268 274 274 273 270 264 266 265 261 257 254 251 248 245 243 242
308 307 304 294 288 288 284 282 282 283 284 279 281 288 288 285 271 266 268 270 272 273 274 264 261 265 265 267 267 263 266 266 261 255 251 247 242 241
311 309 304 297 293 292 289 287 285 278 267 272 273 279 282 286 283 283 285 281 273 273 267 261 262 254 253 260 266 263 262 262 261 258 253 249 244 241
311 310 306 305 302 302 300 291 272 256 267 271 275 275 275 283 288 292 295 287 282 275 270 259 259 250 252 253 260 257 261 258 256 262 254 248 244 242
318 315 313 313 321 333 335 315 268 265 265 269 270 269 269 277 295 314 318 307 294 291 283 270 266 258 253 250 245 251 248 255 262 266 258 251 244 244
332 328 326 329 338 350 11 355 290 273 286 271 259 244 252 300 315 340 359 1 338 291 293 298 303 290 265 253 247 241 248 261 261 259 260 257 247 245
339 345 348 347 348 353 2 23 36 34 9 331 286 252 248 266 284 304 328 342 7 26 332 312 311 314 283 265 257 255 252 246 250 252 259 262 256 251
350 356 358 357 352 355 4 18 20 19 15 5 352 279 241 245 261 295 312 330 347 349 315 310 309 320 325 327 315 300 282 266 262 257 255 260 265 256
348 352 355 354 345 356 15 7 4 4 5 5 4 348 257 236 243 255 267 300 313 318 320 341 346 336 290 265 259 276 284 279 274 267 262 268 274 260
338 341 342 343 343 19 16 14 17 14 14 10 10 12 350 247 246 255 264 271 276 284 291 297 302 303 299 294 289 289 285 295 294 278 273 272 278 264
333 335 336 330 32 24 3 358 357 360 9 15 16 16 18 359 282 269 271 272 275 283 286 283 286 289 288 283 283 289 288 285 289 286 294 274 265 265
332 330 331 337 28 2 351 352 355 360 5 11 14 13 7 15 16 343 306 293 284 280 289 289 288 291 286 281 281 284 281 278 280 281 277 275 272 259